Location: Dortmund
(51.5019°N, 7.6520°E)
Time: 17:03:41
(UTC+01:00)

ISS - Pass Details

Date: 23 March 2017
Orbit: 399 x 409 km, 51.6° (Epoch: 25 March)

Event Time Altitude Azimuth Distance (km) Brightness Sun altitude
Exits shadow 04:30:08 12° 164° (SSE) 1,364 -1.3 -18.1°
Drops below altitude 10° 04:30:27 10° 161° (SSE) 1,469 -1.1 -18.0°
Sets 04:32:48 0° 146° (SE) 2,327 0.1 -17.7°
